Location: Chuathbaluk
(61.5726°N, 159.2454°W)
Time: 16:59:10
(UTC+00:00)

ZACube-1 - Pass Details

Date: 25 January 2021
Orbit: 583 x 666 km, 97.6° (Epoch: 04 March)

Event Time Altitude Azimuth Distance (km) Brightness Sun altitude
Rises 16:23:52 0° 16° (NNE) 3,026 ? -19.5°
Reaches altitude 10° 16:26:07 10° 16° (NNE) 2,106 ? -19.2°
Maximum altitude 16:30:44 81° 291° (WNW) 680 ? -18.7°
Drops below altitude 10° 16:35:16 10° 203° (SSW) 2,066 ? -18.1°
Sets 16:37:27 0° 203° (SSW) 2,963 ? -17.9°
